[TLELIST] Archives

 

[TLELIST] Current TLEs

October 25th 2024 PDT

HST 1 20580U 90037B 24298.42868144 .00012084 00000-0 52893-3 0 9991 2 20580 28.4668 197.6713 0002833 9.1825 350.8820 15.20462166696703 ISS (ZARYA) 1 25544U 98067A 24299.47422089 .00136615 00000-0 23242-2 0 9999 2 25544 51.6386 30.0506 0009349 106.1770 343.9010 15.50396418478755 CXO 1 25867U 99040B 24300.08143777 .00000840 00000-0 00000-0 0 9998 2 25867 44.1200 143.2501 8753999 303.2600 0.0818 0.37809941 15050 ...Continue Reading

[TLELIST] Current TLEs

October 25th 2024 PDT

HST 1 20580U 90037B 24298.42868144 .00012084 00000-0 52893-3 0 9991 2 20580 28.4668 197.6713 0002833 9.1825 350.8820 15.20462166696703 ISS (ZARYA) 1 25544U 98067A 24299.47422089 .00136615 00000-0 23242-2 0 9999 2 25544 51.6386 30.0506 0009349 106.1770 343.9010 15.50396418478755 CXO 1 25867U 99040B 24300.08143777 .00000840 00000-0 00000-0 0 9998 2 25867 44.1200 143.2501 8753999 303.2600 0.0818 0.37809941 15050 ...Continue Reading

[TLELIST] Current TLEs

October 24th 2024 PDT

HST 1 20580U 90037B 24297.90357387 .00011172 00000-0 48860-3 0 9991 2 20580 28.4668 201.2040 0002759 2.7194 357.3414 15.20447821696626 ISS (ZARYA) 1 25544U 98067A 24298.44436653 .00092212 00000-0 15850-2 0 9997 2 25544 51.6393 35.1562 0008960 100.4786 357.9022 15.50314473478594 CXO 1 25867U 99040B 24300.08143777 .00000840 00000-0 00000-0 0 9998 2 25867 44.1200 143.2501 8753999 303.2600 0.0818 0.37809941 15050 ...Continue Reading

[TLELIST] Current TLEs

October 24th 2024 PDT

HST 1 20580U 90037B 24297.90357387 .00011172 00000-0 48860-3 0 9991 2 20580 28.4668 201.2040 0002759 2.7194 357.3414 15.20447821696626 ISS (ZARYA) 1 25544U 98067A 24298.44436653 .00092212 00000-0 15850-2 0 9997 2 25544 51.6393 35.1562 0008960 100.4786 357.9022 15.50314473478594 CXO 1 25867U 99040B 24300.08143777 .00000840 00000-0 00000-0 0 9998 2 25867 44.1200 143.2501 8753999 303.2600 0.0818 0.37809941 15050 ...Continue Reading

[TLELIST] Current TLEs

October 23rd 2024 PDT

HST 1 20580U 90037B 24296.91898420 .00011248 00000-0 49233-3 0 9998 2 20580 28.4672 207.8259 0002553 350.5911 9.4634 15.20424667696473 ISS (ZARYA) 1 25544U 98067A 24297.33806505 .00024287 00000-0 42792-3 0 9994 2 25544 51.6411 40.6377 0009522 96.8714 303.1573 15.50243737478424 CXO 1 25867U 99040B 24300.08122860 .00000840 00000-0 00000+0 0 9997 2 25867 44.1200 143.2499 8754017 303.2604 0.0533 0.37809069 26217 ...Continue Reading

[TLELIST] Current TLEs

October 22nd 2024 PDT

HST 1 20580U 90037B 24295.21232959 .00011120 00000-0 48716-3 0 9993 2 20580 28.4679 219.3096 0002778 334.3344 25.7111 15.20386230696212 ISS (ZARYA) 1 25544U 98067A 24295.97717271 .00019869 00000-0 35261-3 0 9996 2 25544 51.6397 47.3842 0009127 92.3206 267.8828 15.50175955478218 CXO 1 25867U 99040B 24297.43554391 .00000846 00000-0 00000-0 0 9996 2 25867 44.0565 143.4408 8757927 303.1332 359.9287 0.37807178 15053 ...Continue Reading

[TLELIST] Current TLEs

October 22nd 2024 PDT

HST 1 20580U 90037B 24295.21232959 .00011120 00000-0 48716-3 0 9993 2 20580 28.4679 219.3096 0002778 334.3344 25.7111 15.20386230696212 ISS (ZARYA) 1 25544U 98067A 24295.97717271 .00019869 00000-0 35261-3 0 9996 2 25544 51.6397 47.3842 0009127 92.3206 267.8828 15.50175955478218 CXO 1 25867U 99040B 24297.43554391 .00000846 00000-0 00000-0 0 9996 2 25867 44.0565 143.4408 8757927 303.1332 359.9287 0.37807178 15053 ...Continue Reading

[TLELIST] Current TLEs

October 21st 2024 PDT

HST 1 20580U 90037B 24295.14668807 .00010940 00000-0 47915-3 0 9999 2 20580 28.4680 219.7512 0002781 333.3413 26.7037 15.20384608696463 ISS (ZARYA) 1 25544U 98067A 24295.34166233 .00021883 00000-0 38776-3 0 9996 2 25544 51.6411 50.5268 0009330 91.7774 319.5733 15.50150813478117 CXO 1 25867U 99040B 24297.43533143 .00000846 00000-0 00000-0 0 9998 2 25867 44.0565 143.4408 8757924 303.1333 359.8995 0.37807118 15049 ...Continue Reading

[TLELIST] Current TLEs

October 20th 2024 PDT

HST 1 20580U 90037B 24293.89948899 .00017336 00000-0 76441-3 0 9993 2 20580 28.4684 228.1409 0002766 319.3748 40.6638 15.20361907696272 ISS (ZARYA) 1 25544U 98067A 24294.37837902 .00022545 00000-0 39975-3 0 9994 2 25544 51.6398 55.2996 0009428 88.4474 343.7900 15.50110631477960 CXO 1 25867U 99040B 24292.14899531 .00000890 00000-0 00000-0 0 9996 2 25867 43.8911 143.9268 8763916 302.7950 0.4259 0.37813126 15024 ...Continue Reading

[TLELIST] Current TLEs

October 19th 2024 PDT

HST 1 20580U 90037B 24292.91484026 .00016342 00000-0 72066-3 0 9997 2 20580 28.4687 234.7642 0002725 308.3897 51.6451 15.20338793695861 ISS (ZARYA) 1 25544U 98067A 24293.34170017 -.00128572 00000-0 -22749-2 0 9996 2 25544 51.6329 60.4502 0009132 85.0249 318.3933 15.50032711477809 CXO 1 25867U 99040B 24292.14899531 .00000890 00000-0 00000-0 0 9996 2 25867 43.8911 143.9268 8763916 302.7950 0.4259 0.37813126 15024 ...Continue Reading
  • This mailing list is a public mailing list - anyone may join or leave, at any time.
  • This mailing list is announce-only.

International Space Station (ISS) / Hubble Space Telescope (HST) / Chandra X-Ray Observatory Orbital Data via EMAIL

Privacy Policy:

Private list